This is the latest recevied weather packets stored in our database for station/object W4SKW. If no packets are shown the sender has not sent any weather packets the latest 10 day(s).
| Time | Temp. | Humidity | Pressure | Rain* | Wind** | Luminosity | Snow |
|---|---|---|---|---|---|---|---|
| 1777841279 | 21.11° C | 39% | 1019.5 hPa | 0 mm | - | 542 W/m² | - |
| 1777840972 | 21.11° C | 39% | 1019.5 hPa | 0 mm | - | 542 W/m² | - |
| 1777840669 | 21.11° C | 39% | 1019.3 hPa | 0 mm | - | 548 W/m² | - |
| 1777840366 | 21.67° C | 39% | 1019.5 hPa | 0 mm | - | 560 W/m² | - |
| 1777840063 | 21.67° C | 39% | 1019.4 hPa | 0 mm | - | 575 W/m² | - |
| 1777839761 | 21.11° C | 39% | 1019.8 hPa | 0 mm | - | 587 W/m² | - |
| 1777839458 | 21.11° C | 40% | 1019.9 hPa | 0 mm | - | 601 W/m² | - |
| 1777839156 | 21.11° C | 43% | 1019.7 hPa | 0 mm | - | 613 W/m² | - |
| 1777838852 | 20.56° C | 38% | 1019.9 hPa | 0 mm | - | 626 W/m² | - |
| 1777838548 | 20.56° C | 48% | 1020.1 hPa | 0 mm | - | 637 W/m² | - |
| 1777838245 | 21.67° C | 36% | 1020.3 hPa | 0 mm | - | 649 W/m² | - |
| 1777837942 | 20.56° C | 42% | 1020.2 hPa | 0 mm | - | 657 W/m² | - |
| 1777837640 | 21.67° C | 36% | 1020.4 hPa | 0 mm | - | 667 W/m² | - |
| 1777837335 | 21.11° C | 41% | 1020.6 hPa | 0 mm | - | 679 W/m² | - |
| 1777837032 | 20.56° C | 44% | 1020.7 hPa | 0 mm | - | 692 W/m² | - |
| 1777836728 | 20° C | 45% | 1020.7 hPa | 0 mm | - | 698 W/m² | - |
| 1777836424 | 20° C | 42% | 1020.8 hPa | 0 mm | - | 708 W/m² | - |
| 1777836119 | 20° C | 44% | 1020.8 hPa | 0 mm | - | 716 W/m² | - |
| 1777835815 | 20.56° C | 47% | 1020.9 hPa | 0 mm | - | 720 W/m² | - |
| 1777835513 | 20.56° C | 44% | 1020.8 hPa | 0 mm | - | 733 W/m² | - |
| 1777835210 | 20° C | 43% | 1021 hPa | 0 mm | - | 737 W/m² | - |
| 1777834906 | 20.56° C | 43% | 1021.1 hPa | 0 mm | - | 745 W/m² | - |
| 1777834597 | 20.56° C | 40% | 1021.2 hPa | 0 mm | - | 749 W/m² | - |
| 1777834293 | 19.44° C | 44% | 1021.1 hPa | 0 mm | - | 753 W/m² | - |
| 1777833988 | 19.44° C | 42% | 1021.2 hPa | 0 mm | - | 762 W/m² | - |
* Rain latest hour (hover to see other rain measurements)
** Current wind speed in m/s (hover to see current wind gust speed)